User: anonymous   Login
Location: Caltech
(34.1382°N, 118.1253°W)
Time: 03:20:57
(UTC-07:00)
Language:

SL-08 R/B - Orbit

View from above orbital plane
View from above orbital plane
View from above satellite
View from above satellite

Ground track
Ground track

The orbit data is extracted from the following two-line orbital elements,

1 27561U 02054C   17175.54571311 -.00000006 +00000-0 +92580-5 0  9996
2 27561 098.2586 309.2620 0046882 151.1188 209.2619 14.55614558773275
Epoch (UTC): 24 June 2017 13:05:49
Eccentricity: 0.0046882
inclination: 98.2586°
perigee height: 674 km
apogee height: 740 km
right ascension of ascending node: 309.2620°
argument of perigee: 151.1188°
revolutions per day: 14.55614558
mean anomaly at epoch: 209.2619°
orbit number at epoch: 77327

The dashed part of the orbit path shows where the satellite is in the earth's shadow,  

DLR